Regional Weather Roundup
Issued by NWS

Home | Current Version | Previous Version | Text Only | Print | Product List | Glossary Off
Versions: 1 2 3 4 5 6 7 8 9 10 11 12 13 14 15 16 17 18 19 20 21 22 23 24 25 26 27 28 29 30 31 32 33 34 35 36 37 38 39 40 41 42 43 44 45 46 47 48 49 50

000
ASUS43 KMPX 010801
RWRMN
WEATHER ROUNDUP FOR MINNESOTA
NATIONAL WEATHER SERVICE TWIN CITIES/CHANHASSEN MN
200 AM CST SUN MAR 01 2015


NOTE: "FAIR" INDICATES FEW OR NO CLOUDS BELOW 12,000 FEET WITH NO
SIGNIFICANT WEATHER AND/OR OBSTRUCTIONS TO VISIBILITY. N/A MEANS
CURRENT SKY AND/OR WEATHER CONDITIONS ARE NOT AVAILABLE.

MNZ060>063-068>070-010900-
   Twin Cities Metro

CITY           SKY/WX    TMP DP  RH WIND       PRES   REMARKS
TWIN CITIES    CLOUDY    15   8  73 S9        30.28F WCI   3
ST PAUL        CLOUDY    14   9  80 SE8       30.30F WCI   3
CRYSTAL        CLOUDY    16  10  77 S14       30.25F WCI   2
BLAINE         CLOUDY    18  12  79 S13       30.25F WCI   4
LAKEVILLE      CLOUDY    10   9  92 S8        30.28S WCI  -1
EDEN PRAIRIE   CLOUDY    15  10  80 S12       30.26F WCI   2
SOUTH ST PAUL  CLOUDY    15  10  78 S6        30.29F WCI   7
LAKE ELMO      CLOUDY    14  10  85 S10       30.28F WCI   1
$$
MNZ001>005-007-008-013>017-022>024-027-028-010900-
   Northwest Minnesota

CITY           SKY/WX    TMP DP  RH WIND       PRES   REMARKS
BEMIDJI        MOCLDY     7   2  82 W10       30.12S WCI  -8
HALLOCK        CLEAR     -6 -11  77 S7        30.12S WCI -20
ROSEAU         CLEAR      1  -4  78 SW9       30.09S WCI -14
WARROAD        CLEAR      3  -2  78 SW8       30.08S WCI -10
THIEF RVR FALL CLEAR      0  -2  92 SW7       30.14S WCI -13
CROOKSTON      CLEAR      0  -6  78 SW6       30.18F WCI -12
FOSSTON        FLURRIES  -2  -6  84 S7        30.16R WCI -16
DETROIT LAKES  CLEAR      7   3  85 W3        30.17R
MOORHEAD       CLEAR      1   0  92 SW6       30.22S WCI -10
PARK RAPIDS    CLOUDY     9   4  80 W10       30.13R WCI  -5
MAHNOMEN       FAIR       1  -3  83 SW7       30.16R WCI -12
$$
MNZ006-009>011-018-025>026-010900-
   North Central Minnesota

CITY           SKY/WX    TMP DP  RH WIND       PRES   REMARKS
BAUDETTE       CLEAR      8   2  76 W10       30.07R WCI  -6
FLAG ISLAND    PTCLDY     7   1  78 W8        30.05R WCI  -6
INTL FALLS     LGT SNOW  16  12  84 SW8       30.05S FOG     WCI   5
WASKISH        CLOUDY    10   7  85 SW12      30.11R WCI  -4
BIG FORK       FLURRIES  16  10  79 S10G16    30.09S WCI   3
LONGVILLE      MIX PCPN  16  12  86 S6        30.12F WCI   7
GRAND RAPIDS   CLOUDY    14  10  85 S10       30.11S WCI   1
CRANE LAKE     CLOUDY    14   9  79 S6G17     30.11S WCI   5
ORR            FLURRIES  12   9  85 S8        30.06S WCI   1
COOK           FLURRIES  14   9  79 S7        30.10S WCI   4
WALKER         LGT SNOW  16  13  86 SW6       30.10S WCI   8
$$
MNZ012-019>021-037-010900-
   Northeast Minnesota

CITY           SKY/WX    TMP DP  RH WIND       PRES   REMARKS
DULUTH         LGT SNOW  11   4  73 SW16      30.15F WCI  -6
ELY            CLOUDY    10   7  85 SW9       30.10F WCI  -2
HIBBING        LGT SNOW  13   7  77 SW8       30.12F WCI   2
EVELETH        LGT SNOW  12   9  85 SW9       30.13F WCI   0
DULUTH HARBOR  FLURRIES  14   7  73 SW3       30.24F
SILVER BAY     FLURRIES  14   7  73 SW7       30.16F WCI   4
GRAND MARAIS     N/A     18   8  65 W10G20    30.19F WCI   6
G MARAIS ARPRT FLURRIES   9   1  72 S8        30.09F WCI  -4
$$
MNZ029>031-032-039>041-046>048-054>057-064-010900-
   West Central Minnesota

CITY           SKY/WX    TMP DP  RH WIND       PRES   REMARKS
FERGUS FALLS   CLEAR      1  -4  78 W7        30.25R WCI -11
MORRIS         MOCLDY    12   5  73 NW14      30.21S WCI  -3
ALEXANDRIA     CLOUDY    13   8  81 NW16      30.17R WCI  -3
ELBOW LAKE     FAIR       7   3  86 NW6       30.20S WCI  -4
WADENA         FLURRIES  10   7  85 W9        30.15S WCI  -2
APPLETON       CLOUDY    16   7  67 NW13      30.25R WCI   2
BENSON         CLOUDY    16  10  79 N7        30.22R WCI   6
ORTONVILLE     PTCLDY    10   1  67 NW6       30.25R WCI   1
MADISON        MOCLDY    16   5  62 NW10      30.26R WCI   3
WILLMAR        CLOUDY    16  10  79 SW10      30.22R WCI   3
$$
MNZ033>034-036-042>043-049>051-058-059-010900-
   Central Minnesota

CITY           SKY/WX    TMP DP  RH WIND       PRES   REMARKS
ST CLOUD       PTCLDY    13   9  84 S9        30.20F WCI   1
SAUK CENTRE    CLOUDY    17  13  84 SW12      30.18S WCI   4
PAYNESVILLE    MOCLDY    13  10  90 SE9       30.20R WCI   0
PINE RIVER     CLOUDY    16  12  86 S6        30.17S WCI   7
BRAINERD       CLOUDY    13  10  88 S10       30.16F WCI   0
STAPLES        FLURRIES  16  12  86 SW6       30.15S WCI   7
LONG PRAIRIE   CLOUDY    18  12  79 SW8       30.17S WCI   7
LITTLE FALLS   FLURRIES  14  10  85 CALM      30.19S
LITCHFIELD     PTCLDY    16  12  86 SW3       30.21S
MAPLE LAKE     PTCLDY    16  13  88 S6        30.23S WCI   7
$$
MNZ037-044-045-052-053-010900-
   East Central Minnesota

CITY           SKY/WX    TMP DP  RH WIND       PRES   REMARKS
PRINCETON      FLURRIES  16  10  79 S7        30.22S WCI   6
MORA           MOCLDY    12   7  79 S5        30.23F WCI   4
RUSH CITY      CLOUDY    11   6  79 S7        30.24F WCI   0
MOOSE LAKE     FLURRIES  10   5  79 CALM      30.19S
HINCKLEY       CLOUDY    12   7  79 S8        30.22F WCI   1
CLOQUET        LGT SNOW  10   5  79 S10G18    30.17S WCI  -3
MCGREGOR       CLOUDY    14  10  85 S12       30.17F WCI   0
$$
MNZ071>073-080-081-089-090-097-098-010900-
   Southwest Minnesota

CITY           SKY/WX    TMP DP  RH WIND       PRES   REMARKS
MONTEVIDEO     CLOUDY    16  12  86 N8G16     30.25R WCI   5
GRANITE FALLS  PTCLDY    15  11  83 W16G22    30.24R WCI   0
CANBY          MOCLDY    17  12  82 NW8       30.26R WCI   6
MARSHALL       CLOUDY    18  10  73 NW13      30.24R WCI   4
REDWOOD FALLS  PTCLDY    15  10  80 SW12      30.23S WCI   2
OLIVIA         PTCLDY    14  10  85 S9        30.21S WCI   2
PIPESTONE      CLEAR      9   7  92 W5        30.22R WCI   0
WINDOM         CLEAR     12  10  92 S13       30.24R WCI  -3
WORTHINGTON    CLEAR     25   9  50 SW18      30.25S WCI  11
JACKSON        CLEAR     14  10  85 SW15      30.25S WCI  -1
TRACY          CLEAR     15  11  83 SW12      30.23R WCI   2
SLAYTON        PTCLDY    12   9  87 SW15      30.23R WCI  -4
$$
MNZ065>067-074>077-082>085-091>093-010900-
   South Central Minnesota

CITY           SKY/WX    TMP DP  RH WIND       PRES   REMARKS
MANKATO        CLOUDY    14  10  85 S12       30.27F WCI   0
NEW ULM        PTCLDY    16  10  79 S12       30.25S WCI   3
ST JAMES       CLEAR     16  10  79 S14       30.27S WCI   1
FAIRMONT       CLEAR     10   7  85 S12       30.27R WCI  -4
GLENCOE        MOCLDY    17  14  89 S9        30.24S WCI   5
FARIBAULT      CLOUDY    10   9  92 S8        30.29S WCI  -1
OWATONNA       PTCLDY    10   7  85 S13       30.28F WCI  -5
ALBERT LEA     CLEAR     10   9  92 S5        30.30R WCI   2
$$
MNZ078>079-086>088-094>096-010900-
   Southeast Minnesota

CITY           SKY/WX    TMP DP  RH WIND       PRES   REMARKS
ROCHESTER      PTCLDY     7   4  87 S12       30.29F WCI  -8
RED WING       MOCLDY    14   7  73 S5        30.32S WCI   6
STANTON        MOCLDY    14   9  82 S9        30.28F WCI   1
DODGE CENTER   LGT SNOW  10   9  92 S14       30.28S WCI  -5
WINONA         MOCLDY    14   9  79 SE3       30.37F
AUSTIN         PTCLDY     7   3  85 S9        30.31S WCI  -7
PRESTON        LGT SNOW   7   4  89 S9        30.31F WCI  -7
$$
ABBREVIATIONS USED IN REMARKS
   TC - TEMPERATURES IN CELSIUS
  WCI - WIND CHILL INDEX
   HX - HEAT INDEX
  VSB - VISIBILITY
$$


USA.gov is the U.S. government's official web portal to all federal, state and local government web resources and services.